默认 日期 大小 文件数 浏览量 最新下载 xml
dtshd磁力链接相关资源由用户搜索指令自动获取,结果来源于网络,本站不存储任何资料,亦不承担任何责任,请于24小时内删除,搜索到1779个磁力,用时2ms。
    ... Memories EP01 1080p BDRip x264 DTSHD MA-DECAY.mkv": 1121990029, ... Memories EP02 1080p BDRip x264 DTSHD MA-DECAY.mkv": 1090260439, ... Memories EP03 1080p BDRip x264 DTSHD MA-DECAY.mkv": 1251353842, ... Memories EP04 1080p BDRip x264 DTSHD MA-DECAY.mkv": 1127818966, ...
创建时间: 2022-11-27 20:58:04 大小:29.9 GB 文件数量:32 热度:2 最近下载:2025-01-22 13:50:05
    ... .2008.REPACK.BDRip.1080p.x264.DTSHD-CHD.nfo": 7601, "Red. ... .2008.REPACK.BDRip.1080p.x264.DTSHD-CHD.D1.avi": 4677472256, "Red ... .2008.REPACK.BDRip.1080p.x264.DTSHD-CHD.D2.avi": 4677287936, "Red ... .2008.REPACK.BDRip.1080p.x264.DTSHD-CHD.D3.avi": 4664082432, "Red ...
创建时间: 2022-11-27 22:37:39 大小:13.15 GB 文件数量:8 热度:9 最近下载:2025-05-18 14:41:02
    {"SAW.V.2008.UNRATED.VC-1.Remux.DTSHD.5.1.HUN-USA": {"SAW.V.2008.UNRATED.VC-1.Remux.DTSHD.5.1.HUN-USA.mkv": 16953391637, "SAW.V.2008.UNRATED.VC-1.Remux.DTSHD.5.1.HUN-USA.nfo": 2507}}
创建时间: 2022-11-27 23:48:32 大小:15.79 GB 文件数量:2 热度:3 最近下载:2025-01-23 12:55:04
    ... , "Terminator.1984.Bluray.1080p.DTSHD-MA.MPEG-2.Remux-Framestor ... , "Terminator.1984.Bluray.1080p.DTSHD-MA.MPEG-2.Remux-Framestor ... Terminator.Salvation.2009.Bluray.1080p.DTSHD-MA.VC-1.Remux-Framestor ... Terminator.Salvation.2009.Bluray.1080p.DTSHD-MA.VC-1.Remux- ...
创建时间: 2022-11-28 22:16:40 大小:84.86 GB 文件数量:14 热度:13 最近下载:2025-04-09 23:45:02
    ... , "The.Arrival.1996.Bluray.1080p.DTSHD.x264-CHD.mkv": 9354373584, "The ... .Arrival.1996.Bluray.1080p.DTSHD.x264-CHD.eng.srt": 72575 ...
创建时间: 2022-12-02 06:43:33 大小:8.82 GB 文件数量:11 热度:7 最近下载:2025-01-21 10:32:03
    ... BloodRayne 2005 BDRip.1080p.x264.DTSHD DualAudio-CHD.par2": 54860, ... BloodRayne 2005 BDRip.1080p.x264.DTSHD DualAudio-CHD.d1.avi": ... BloodRayne 2005 BDRip.1080p.x264.DTSHD DualAudio-CHD.d2.avi": ... BloodRayne 2005 BDRip.1080p.x264.DTSHD DualAudio-CHD.vol00+01. ...
创建时间: 2022-12-05 06:34:21 大小:8.9 GB 文件数量:10 热度:8 最近下载:2025-07-19 17:29:02
    {"A Muse 2012 BluRay Remux 1080p AVC DTSHD MA 5.1-HDStar.ts": 27510362420}
创建时间: 2022-12-05 21:40:49 大小:25.62 GB 文件数量:1 热度:17 最近下载:2025-05-16 09:50:01
    ... Traffic 2000 BDRip.1080p.x264.DTSHD Audio-CHD.par2": 57172, ... Traffic 2000 BDRip.1080p.x264.DTSHD Audio-CHD.D1.avi": 4675897344 ... Traffic 2000 BDRip.1080p.x264.DTSHD Audio-CHD.D2.avi": 4679729152 ... Traffic 2000 BDRip.1080p.x264.DTSHD Audio-CHD.D3.avi": 4661829632 ...
创建时间: 2022-12-06 18:27:40 大小:13.29 GB 文件数量:11 热度:6 最近下载:2025-08-07 16:34:03
    {"WayNe-Speed.idx": 188110, "WayNe-Speed.mkv": 8524434873, "WayNe-Speed.nfo": 7932, "WayNe-Speed.rar": 2923250, "WayNe-Speed-Sample.mkv": 41768205}
创建时间: 2022-12-07 17:18:44 大小:7.98 GB 文件数量:5 热度:3 最近下载:2025-01-19 20:53:04
    ... Blu-ray.REMUX.MPEG2.1080P.DTSHD-HR.DD51.Fanxy@Silu. ... Blu-ray.REMUX.MPEG2.1080P.DTSHD-HR.DD51.Fanxy@Silu. ... Blu-ray.REMUX.MPEG2.1080P.DTSHD-HR.DD51.Fanxy@Silu. ... Blu-ray.REMUX.MPEG2.1080P.DTSHD-HR.DD51.Fanxy@Silu. ... Blu-ray.REMUX.MPEG2.1080P.DTSHD-HR.DD51.Fanxy@Silu. ...
创建时间: 2022-12-09 06:56:23 大小:18.55 GB 文件数量:11 热度:6 最近下载:2025-02-15 05:31:01
    ... Saw.VI.UNRATED.2009.German.DTSHD.DL.1080p.BluRay.x264-iNCEPTiON ... Saw.VI.UNRATED.2009.German.DTSHD.DL.1080p.BluRay.x264-iNCEPTiON ... Saw.VII.UNRATED.2010.German.DTSHD.DL.1080p.BluRay.x264-iNCEPTiON ... {"Saw.VII.UNRATED.2010.German.DTSHD.DL.1080p.BluRay.x264-iNCEPTiON ...
创建时间: 2022-12-10 05:32:22 大小:91.95 GB 文件数量:14 热度:7 最近下载:2025-01-22 18:07:02
    ... .Blu-ray.REMUX.VC-1.DTSHD.MySiLU.ts": 28465768080, "Field.of ... .Blu-ray.REMUX.VC-1.DTSHD.MySiLU.ts.par2": 40444, "Field ... .Blu-ray.REMUX.VC-1.DTSHD.MySiLU.ts.vol0+1.par2 ... .Blu-ray.REMUX.VC-1.DTSHD.MySiLU.ts.vol1+2.par2 ... Blu-ray.REMUX.VC-1.DTSHD.MySiLU.ts.vol3+2.par2 ...
创建时间: 2022-12-10 06:44:42 大小:26.58 GB 文件数量:6 热度:12 最近下载:2025-04-04 02:56:02
    {"Sample.mkv": 194667121, "Pompeii.2014.1080p.BluRay.DTSHD.X264.H3LL2P4Y.mkv": 15021943537}
创建时间: 2022-12-13 21:21:54 大小:14.17 GB 文件数量:2 热度:5 最近下载:2025-01-23 23:44:05
    ... 影」 (BD 1920x1080p AVC DTSHD).mkv": 3096405931, "[UCCUSS] Summer ... 渦」 (BD 1920x1080p AVC DTSHD).mkv": 3600375986, "[UCCUSS] Summer ... 着」 (BD 1920x1080p AVC DTSHD).mkv": 2645428102, "[UCCUSS] Summer ... 敵」 (BD 1920x1080p AVC DTSHD).mkv": 3075378238, "[UCCUSS] Summer ...
创建时间: 2022-12-13 22:05:15 大小:35.69 GB 文件数量:12 热度:12 最近下载:2025-09-17 07:37:13
    ... "Chasing.Amy.1997.Bluray.1080p.DTSHD.x264-CHD.par2": 54848, " ... Chasing.Amy.1997.Bluray.1080p.DTSHD.x264-CHD.D1.mkv": 4676827746 ... "Chasing.Amy.1997.Bluray.1080p.DTSHD.x264-CHD.D2.mkv": 4677676011 ... "Chasing.Amy.1997.Bluray.1080p.DTSHD.x264-CHD.vol00+01.PAR2 ...
创建时间: 2022-12-14 06:56:36 大小:8.9 GB 文件数量:10 热度:3 最近下载:2025-01-23 12:24:04
    ... Who 2008 BDRip.1080p.x264.DTSHD ThreeAudio-CHD.par2": 54884, " ... Who 2008 BDRip.1080p.x264.DTSHD ThreeAudio-CHD.D1.avi": 4671881216 ... Who 2008 BDRip.1080p.x264.DTSHD ThreeAudio-CHD.D2.avi": 4682194944 ... Who 2008 BDRip.1080p.x264.DTSHD ThreeAudio-CHD.vol00+01.PAR2 ...
创建时间: 2022-12-14 16:33:02 大小:8.9 GB 文件数量:10 热度:6 最近下载:2025-06-08 11:40:02
    ... Orphanage 2007 BDrip.1080p.x264.DTSHD Audio-CHD.par2": 54840, " ... Orphanage 2007 BDrip.1080p.x264.DTSHD Audio-CHD.D1.avi": 4675559424 ... Orphanage 2007 BDrip.1080p.x264.DTSHD Audio-CHD.D2.avi": 4672958464 ... Orphanage 2007 BDrip.1080p.x264.DTSHD Audio-CHD.vol00+01. ...
创建时间: 2022-12-15 05:35:46 大小:8.9 GB 文件数量:10 热度:5 最近下载:2025-09-25 04:02:23
    {"A DDR Release !!!.txt": 287, "Torrent downloaded from ExtraTorrent.cc.txt": 28, "Justice League Dark. 2017 1080p BluRay x264 Multi DTSHD 7.1 -DDR.mkv": 7573123580, "sample-Justice League Dark. 2017 1080p BluRay x264 Multi DTSHD 7.1 -DDR.mkv": 46328970}
创建时间: 2022-12-15 23:50:03 大小:7.1 GB 文件数量:4 热度:7 最近下载:2025-03-11 17:51:02
    {"bhd-prupg-1080p.mkv": 6974292282, "bhd-prupg-1080p-sample.mkv": 67884760}
创建时间: 2022-12-16 05:34:02 大小:6.56 GB 文件数量:2 热度:4 最近下载:2025-01-20 22:53:11
    {"Beauty.and.the.Beast.2017.BD50.3D.MVC.DTSHD.7.1.HUN-HDPhoenix.iso": 48761602048}
创建时间: 2022-12-17 08:16:11 大小:45.41 GB 文件数量:1 热度:11 最近下载:2025-03-27 10:52:01